Time,TemperatureF,DewpointF,PressureIn,WindDirection,WindDirectionDegrees,WindSpeedMPH,WindSpeedGustMPH,Humidity,HourlyPrecipIn,Conditions,Clouds,dailyrainin,SoftwareType,DateUTC
2013-04-26 00:00:00,43.8,30.8,29.32,SSE,158,14.6,14.6,60,0.00,,---,0.00,VWS V13.01,2013-04-26 05:00:00,
2013-04-26 00:05:00,43.8,30.8,29.32,SSE,158,0.0,0.0,60,0.00,,---,0.00,VWS V13.01,2013-04-26 05:05:00,
2013-04-26 00:10:00,44.0,31.0,29.32,SE,135,2.2,2.2,60,0.00,,---,0.00,VWS V13.01,2013-04-26 05:10:00,
2013-04-26 00:15:00,44.0,31.0,29.31,ESE,112,10.6,10.6,60,0.00,,---,0.00,VWS V13.01,2013-04-26 05:15:00,
2013-04-26 00:20:00,44.2,31.2,29.31,ESE,112,14.2,14.2,60,0.00,,---,0.00,VWS V13.01,2013-04-26 05:20:00,
2013-04-26 00:25:00,44.2,31.2,29.31,SE,135,13.4,13.4,60,0.00,,---,0.00,VWS V13.01,2013-04-26 05:25:00,
2013-04-26 00:30:00,44.4,31.4,29.31,ESE,112,18.6,18.6,60,0.00,,---,0.00,VWS V13.01,2013-04-26 05:30:00,
2013-04-26 00:35:00,44.4,31.0,29.31,SE,135,12.8,12.8,59,0.00,,---,0.00,VWS V13.01,2013-04-26 05:35:00,
2013-04-26 00:40:00,44.4,31.0,29.31,SE,135,0.0,0.0,59,0.00,,---,0.00,VWS V13.01,2013-04-26 05:40:00,
2013-04-26 00:45:00,44.4,31.0,29.31,SE,135,7.0,7.0,59,0.00,,---,0.00,VWS V13.01,2013-04-26 05:45:00,
2013-04-26 00:50:00,44.4,31.4,29.30,SE,135,3.0,3.0,60,0.00,,---,0.00,VWS V13.01,2013-04-26 05:50:00,
2013-04-26 00:55:00,44.4,31.4,29.30,SE,135,0.0,0.0,60,0.00,,---,0.00,VWS V13.01,2013-04-26 05:55:00,
2013-04-26 01:00:00,44.4,31.4,29.30,SE,135,4.8,23.6,60,0.00,,---,0.00,VWS V13.01,2013-04-26 06:00:00,
2013-04-26 01:05:00,44.2,31.2,29.30,SE,135,9.2,9.2,60,0.00,,---,0.00,VWS V13.01,2013-04-26 06:05:00,
2013-04-26 01:10:00,44.2,31.2,29.31,SSE,158,8.4,8.4,60,0.00,,---,0.00,VWS V13.01,2013-04-26 06:10:00,
2013-04-26 01:15:00,44.2,31.2,29.32,SE,135,8.8,8.8,60,0.00,,---,0.00,VWS V13.01,2013-04-26 06:15:00,
2013-04-26 01:20:00,44.2,31.2,29.34,SE,135,0.0,0.0,60,0.00,,---,0.00,VWS V13.01,2013-04-26 06:20:00,
2013-04-26 01:26:00,44.2,31.2,29.33,SE,135,0.0,0.0,60,0.00,,---,0.00,VWS V13.01,2013-04-26 06:26:00,
2013-04-26 01:31:00,44.4,31.4,29.33,SE,135,7.6,7.6,60,0.00,,---,0.00,VWS V13.01,2013-04-26 06:31:00,
2013-04-26 01:36:00,44.4,31.4,29.33,SSE,158,0.0,13.8,60,0.00,,---,0.00,VWS V13.01,2013-04-26 06:36:00,
2013-04-26 01:41:00,44.4,31.4,29.33,SE,135,12.0,12.0,60,0.00,,---,0.00,VWS V13.01,2013-04-26 06:41:00,
2013-04-26 01:46:00,44.4,31.4,29.33,SE,135,9.8,9.8,60,0.00,,---,0.00,VWS V13.01,2013-04-26 06:46:00,
2013-04-26 01:52:00,44.6,31.6,29.32,SE,135,0.0,0.0,60,0.00,,---,0.00,VWS V13.01,2013-04-26 06:52:00,
2013-04-26 01:57:00,44.6,31.6,29.32,SSE,158,12.4,12.4,60,0.00,,---,0.00,VWS V13.01,2013-04-26 06:57:00,
2013-04-26 02:02:00,44.7,31.7,29.31,SE,135,0.0,9.2,60,0.00,,---,0.00,VWS V13.01,2013-04-26 07:02:00,
2013-04-26 02:08:00,44.7,31.7,29.31,SE,135,5.8,5.8,60,0.00,,---,0.00,VWS V13.01,2013-04-26 07:08:00,
2013-04-26 02:13:00,44.6,31.6,29.31,SE,135,0.0,12.0,60,0.00,,---,0.00,VWS V13.01,2013-04-26 07:13:00,
2013-04-26 02:18:00,44.4,31.4,29.30,SE,135,0.0,0.0,60,0.00,,---,0.00,VWS V13.01,2013-04-26 07:18:00,
2013-04-26 02:23:00,44.4,31.4,29.30,SE,135,0.0,0.0,60,0.00,,---,0.00,VWS V13.01,2013-04-26 07:23:00,
2013-04-26 02:28:00,44.2,31.6,29.30,SE,135,0.0,0.0,61,0.00,,---,0.00,VWS V13.01,2013-04-26 07:28:00,
2013-04-26 02:34:00,44.0,31.4,29.30,SE,135,12.0,12.0,61,0.00,,---,0.00,VWS V13.01,2013-04-26 07:34:00,
2013-04-26 02:39:00,43.8,31.6,29.30,SSE,158,13.8,13.8,62,0.00,,---,0.00,VWS V13.01,2013-04-26 07:39:00,
2013-04-26 02:45:00,43.8,31.6,29.30,SE,135,22.2,22.2,62,0.00,,---,0.00,VWS V13.01,2013-04-26 07:45:00,
2013-04-26 02:50:00,43.7,31.5,29.30,SSE,158,0.0,0.0,62,0.00,,---,0.00,VWS V13.01,2013-04-26 07:50:00,
2013-04-26 02:55:00,43.7,31.5,29.29,SE,135,0.0,0.0,62,0.00,,---,0.00,VWS V13.01,2013-04-26 07:55:00,
2013-04-26 03:00:00,43.7,32.0,29.29,SE,135,5.8,5.8,63,0.00,,---,0.00,VWS V13.01,2013-04-26 08:00:00,
2013-04-26 03:05:00,43.7,32.0,29.29,SE,135,0.0,0.0,63,0.00,,---,0.00,VWS V13.01,2013-04-26 08:05:00,
2013-04-26 03:10:00,43.5,31.8,29.29,SE,135,0.0,0.0,63,0.00,,---,0.00,VWS V13.01,2013-04-26 08:10:00,
2013-04-26 03:15:00,43.5,31.8,29.29,SE,135,7.0,12.8,63,0.00,,---,0.00,VWS V13.01,2013-04-26 08:15:00,
2013-04-26 03:20:00,43.5,31.8,29.29,SE,135,0.0,0.0,63,0.00,,---,0.00,VWS V13.01,2013-04-26 08:20:00,
2013-04-26 03:25:00,43.5,31.8,29.28,SSE,158,0.0,0.0,63,0.00,,---,0.00,VWS V13.01,2013-04-26 08:25:00,
2013-04-26 03:30:00,43.3,32.0,29.28,SE,135,12.8,12.8,64,0.00,,---,0.00,VWS V13.01,2013-04-26 08:30:00,
2013-04-26 03:35:00,43.3,32.0,29.28,SE,135,27.2,27.2,64,0.00,,---,0.00,VWS V13.01,2013-04-26 08:35:00,
2013-04-26 03:40:00,43.3,32.0,29.28,SSE,158,21.0,21.0,64,0.00,,---,0.00,VWS V13.01,2013-04-26 08:40:00,
2013-04-26 03:45:00,43.5,32.2,29.28,SE,135,0.0,12.4,64,0.00,,---,0.00,VWS V13.01,2013-04-26 08:45:00,
2013-04-26 03:50:00,43.5,32.2,29.28,SSE,158,22.8,22.8,64,0.00,,---,0.00,VWS V13.01,2013-04-26 08:50:00,
2013-04-26 03:55:00,43.7,32.3,29.28,SE,135,3.4,3.4,64,0.00,,---,0.00,VWS V13.01,2013-04-26 08:55:00,
2013-04-26 04:00:00,43.8,32.4,29.28,SE,135,0.0,8.4,64,0.00,,---,0.00,VWS V13.01,2013-04-26 09:00:00,
2013-04-26 04:05:00,44.0,32.6,29.28,SSE,158,11.0,11.0,64,0.00,,---,0.00,VWS V13.01,2013-04-26 09:05:00,
2013-04-26 04:10:00,44.2,32.8,29.28,SSE,158,12.4,12.4,64,0.00,,---,0.00,VWS V13.01,2013-04-26 09:10:00,
2013-04-26 04:15:00,44.2,32.8,29.28,SE,135,14.2,14.2,64,0.00,,---,0.00,VWS V13.01,2013-04-26 09:15:00,
2013-04-26 04:20:00,44.4,33.0,29.28,SE,135,12.4,12.4,64,0.00,,---,0.00,VWS V13.01,2013-04-26 09:20:00,
2013-04-26 04:25:00,44.4,33.0,29.28,SSE,158,0.0,0.0,64,0.00,,---,0.00,VWS V13.01,2013-04-26 09:25:00,
2013-04-26 04:30:00,44.4,33.0,29.28,SE,135,0.0,0.0,64,0.00,,---,0.00,VWS V13.01,2013-04-26 09:30:00,
2013-04-26 04:35:00,44.4,33.0,29.28,SE,135,0.0,0.0,64,0.00,,---,0.00,VWS V13.01,2013-04-26 09:35:00,
2013-04-26 04:40:00,44.4,33.0,29.29,SSE,158,15.2,24.0,64,0.00,,---,0.00,VWS V13.01,2013-04-26 09:40:00,
2013-04-26 04:45:00,44.4,33.4,29.28,SE,135,0.0,19.6,65,0.00,,---,0.00,VWS V13.01,2013-04-26 09:45:00,
2013-04-26 04:50:00,44.4,33.4,29.28,SE,135,0.0,0.0,65,0.00,,---,0.00,VWS V13.01,2013-04-26 09:50:00,
2013-04-26 04:55:00,44.2,33.2,29.27,SE,135,0.0,0.0,65,0.00,,---,0.00,VWS V13.01,2013-04-26 09:55:00,
2013-04-26 05:00:00,44.2,33.2,29.27,SE,135,0.0,13.4,65,0.00,,---,0.00,VWS V13.01,2013-04-26 10:00:00,
2013-04-26 05:05:00,44.0,33.0,29.27,SSE,158,15.6,15.6,65,0.00,,---,0.00,VWS V13.01,2013-04-26 10:05:00,
2013-04-26 05:10:00,43.8,33.2,29.27,SE,135,0.0,7.6,66,0.00,,---,0.00,VWS V13.01,2013-04-26 10:10:00,
2013-04-26 05:15:00,43.8,33.2,29.27,SE,135,13.4,20.4,66,0.00,,---,0.00,VWS V13.01,2013-04-26 10:15:00,
2013-04-26 05:20:00,43.8,33.2,29.27,SE,135,0.0,0.0,66,0.00,,---,0.00,VWS V13.01,2013-04-26 10:20:00,
2013-04-26 05:25:00,43.7,33.1,29.26,SSE,158,8.0,8.0,66,0.00,,---,0.00,VWS V13.01,2013-04-26 10:25:00,
2013-04-26 05:30:00,43.7,33.5,29.26,ESE,112,0.0,8.0,67,0.00,,---,0.00,VWS V13.01,2013-04-26 10:30:00,
2013-04-26 05:35:00,43.5,33.3,29.26,SSE,158,0.0,0.0,67,0.00,,---,0.00,VWS V13.01,2013-04-26 10:35:00,
2013-04-26 05:40:00,43.5,33.3,29.26,SE,135,0.0,0.0,67,0.00,,---,0.00,VWS V13.01,2013-04-26 10:40:00,
2013-04-26 05:45:00,43.5,33.3,29.26,SE,135,0.0,0.0,67,0.00,,---,0.00,VWS V13.01,2013-04-26 10:45:00,
2013-04-26 05:50:00,43.5,33.3,29.27,South,180,13.8,13.8,67,0.00,,---,0.00,VWS V13.01,2013-04-26 10:50:00,
2013-04-26 05:55:00,43.5,33.3,29.27,SE,135,10.6,10.6,67,0.00,,---,0.00,VWS V13.01,2013-04-26 10:55:00,
2013-04-26 06:00:00,43.5,33.7,29.26,SE,135,0.0,3.0,68,0.00,,---,0.00,VWS V13.01,2013-04-26 11:00:00,
2013-04-26 06:05:00,43.7,33.8,29.25,SE,135,0.0,0.0,68,0.00,,---,0.00,VWS V13.01,2013-04-26 11:05:00,
2013-04-26 06:10:00,43.7,33.8,29.25,SSE,158,0.0,12.0,68,0.00,,---,0.00,VWS V13.01,2013-04-26 11:10:00,
2013-04-26 06:15:00,43.7,33.8,29.25,SSE,158,13.4,13.4,68,0.00,,---,0.00,VWS V13.01,2013-04-26 11:15:00,
2013-04-26 06:20:00,43.7,33.8,29.25,SE,135,12.0,12.0,68,0.00,,---,0.00,VWS V13.01,2013-04-26 11:20:00,
2013-04-26 06:25:00,43.7,33.8,29.26,SSE,158,6.2,6.2,68,0.00,,---,0.00,VWS V13.01,2013-04-26 11:25:00,
2013-04-26 06:30:00,43.8,34.3,29.25,SE,135,8.8,8.8,69,0.00,,---,0.00,VWS V13.01,2013-04-26 11:30:00,
2013-04-26 06:35:00,43.8,34.3,29.26,South,180,6.6,6.6,69,0.00,,---,0.00,VWS V13.01,2013-04-26 11:35:00,
2013-04-26 06:40:00,43.8,34.3,29.26,SE,135,8.8,8.8,69,0.00,,---,0.00,VWS V13.01,2013-04-26 11:40:00,
2013-04-26 06:45:00,43.8,34.3,29.26,SE,135,10.6,10.6,69,0.00,,---,0.00,VWS V13.01,2013-04-26 11:45:00,
2013-04-26 06:50:00,43.8,34.3,29.26,SSE,158,13.4,13.4,69,0.00,,---,0.00,VWS V13.01,2013-04-26 11:50:00,
2013-04-26 06:55:00,43.7,34.2,29.26,SSE,158,9.2,9.2,69,0.00,,---,0.00,VWS V13.01,2013-04-26 11:55:00,
2013-04-26 07:00:00,43.7,34.2,29.26,SSE,158,13.4,13.4,69,0.00,,---,0.00,VWS V13.01,2013-04-26 12:00:00,
2013-04-26 07:05:00,43.5,34.0,29.25,SSE,158,4.8,4.8,69,0.00,,---,0.00,VWS V13.01,2013-04-26 12:05:00,
2013-04-26 07:10:00,43.5,34.4,29.25,SE,135,9.8,13.4,70,0.00,,---,0.00,VWS V13.01,2013-04-26 12:10:00,
2013-04-26 07:15:00,43.5,34.4,29.25,SSE,158,7.6,12.8,70,0.00,,---,0.00,VWS V13.01,2013-04-26 12:15:00,
2013-04-26 07:20:00,43.5,34.4,29.25,SSE,158,10.6,10.6,70,0.00,,---,0.00,VWS V13.01,2013-04-26 12:20:00,
2013-04-26 07:25:00,43.7,34.6,29.26,SE,135,0.0,5.8,70,0.00,,---,0.00,VWS V13.01,2013-04-26 12:25:00,
2013-04-26 07:30:00,44.0,34.9,29.26,ESE,112,6.2,6.2,70,0.00,,---,0.00,VWS V13.01,2013-04-26 12:30:00,
2013-04-26 07:35:00,44.2,35.0,29.26,SSE,158,12.4,12.4,70,0.00,,---,0.00,VWS V13.01,2013-04-26 12:35:00,
2013-04-26 07:40:00,44.4,35.2,29.26,SSE,158,0.0,4.4,70,0.00,,---,0.00,VWS V13.01,2013-04-26 12:40:00,
2013-04-26 07:45:00,44.7,35.5,29.26,SE,135,9.8,9.8,70,0.00,,---,0.00,VWS V13.01,2013-04-26 12:45:00,
2013-04-26 07:50:00,45.1,35.9,29.26,SSE,158,0.0,0.0,70,0.00,,---,0.00,VWS V13.01,2013-04-26 12:50:00,
2013-04-26 07:55:00,45.5,36.3,29.26,SSW,202,4.4,15.2,70,0.00,,---,0.00,VWS V13.01,2013-04-26 12:55:00,
2013-04-26 08:00:00,46.0,36.4,29.26,SSE,158,0.0,7.6,69,0.00,,---,0.00,VWS V13.01,2013-04-26 13:00:00,
2013-04-26 08:05:00,46.2,36.6,29.26,SE,135,21.0,21.0,69,0.00,,---,0.00,VWS V13.01,2013-04-26 13:05:00,
2013-04-26 08:10:00,46.9,37.3,29.26,South,180,10.6,18.2,69,0.00,,---,0.00,VWS V13.01,2013-04-26 13:10:00,
2013-04-26 08:15:00,47.3,37.7,29.26,South,180,9.8,9.8,69,0.00,,---,0.00,VWS V13.01,2013-04-26 13:15:00,
2013-04-26 08:20:00,47.8,37.8,29.26,SE,135,16.0,16.0,68,0.00,,---,0.00,VWS V13.01,2013-04-26 13:20:00,
2013-04-26 08:25:00,48.3,38.2,29.25,SE,135,0.0,0.0,68,0.00,,---,0.00,VWS V13.01,2013-04-26 13:25:00,
2013-04-26 08:30:00,48.9,38.8,29.26,SW,225,21.0,21.0,68,0.00,,---,0.00,VWS V13.01,2013-04-26 13:30:00,
2013-04-26 08:35:00,49.2,38.7,29.26,SSE,158,0.0,0.0,67,0.00,,---,0.00,VWS V13.01,2013-04-26 13:35:00,
2013-04-26 08:40:00,49.8,38.9,29.26,SSW,202,20.0,22.8,66,0.00,,---,0.00,VWS V13.01,2013-04-26 13:40:00,
2013-04-26 08:45:00,50.3,39.4,29.26,SSE,158,17.0,17.0,66,0.00,,---,0.00,VWS V13.01,2013-04-26 13:45:00,
2013-04-26 08:50:00,50.9,39.6,29.26,SSW,202,8.8,8.8,65,0.00,,---,0.00,VWS V13.01,2013-04-26 13:50:00,
2013-04-26 08:55:00,51.4,40.0,29.26,South,180,8.4,13.8,65,0.00,,---,0.00,VWS V13.01,2013-04-26 13:55:00,
2013-04-26 09:00:00,52.1,39.9,29.27,SSW,202,14.6,17.4,63,0.00,,---,0.00,VWS V13.01,2013-04-26 14:00:00,
2013-04-26 09:06:00,52.8,40.2,29.26,South,180,16.0,16.0,62,0.00,,---,0.00,VWS V13.01,2013-04-26 14:06:00,
2013-04-26 09:11:00,53.2,40.5,29.26,South,180,18.2,18.2,62,0.00,,---,0.00,VWS V13.01,2013-04-26 14:11:00,
2013-04-26 09:16:00,53.7,40.6,29.26,SSE,158,9.2,9.2,61,0.00,,---,0.00,VWS V13.01,2013-04-26 14:16:00,
2013-04-26 09:21:00,54.3,40.7,29.26,South,180,4.4,4.4,60,0.00,,---,0.00,VWS V13.01,2013-04-26 14:21:00,
2013-04-26 09:26:00,54.8,41.2,29.26,SSW,202,28.0,28.0,60,0.00,,---,0.00,VWS V13.01,2013-04-26 14:26:00,
2013-04-26 09:31:00,55.2,41.1,29.26,SSW,202,8.0,8.0,59,0.00,,---,0.00,VWS V13.01,2013-04-26 14:31:00,
2013-04-26 09:36:00,55.9,41.8,29.27,SW,225,15.2,18.2,59,0.00,,---,0.00,VWS V13.01,2013-04-26 14:36:00,
2013-04-26 09:41:00,56.3,41.7,29.26,West,270,0.8,0.8,58,0.00,,---,0.00,VWS V13.01,2013-04-26 14:41:00,
2013-04-26 09:46:00,56.6,41.6,29.26,South,180,23.2,23.2,57,0.00,,---,0.00,VWS V13.01,2013-04-26 14:46:00,
2013-04-26 09:51:00,57.3,42.2,29.26,SW,225,19.2,19.2,57,0.00,,---,0.00,VWS V13.01,2013-04-26 14:51:00,
2013-04-26 09:56:00,57.7,42.1,29.26,SSW,202,9.8,9.8,56,0.00,,---,0.00,VWS V13.01,2013-04-26 14:56:00,
2013-04-26 10:01:00,58.2,42.6,29.26,SW,225,28.0,28.0,56,0.00,,---,0.00,VWS V13.01,2013-04-26 15:01:00,
2013-04-26 10:06:00,58.8,42.2,29.27,SW,225,14.2,14.2,54,0.00,,---,0.00,VWS V13.01,2013-04-26 15:06:00,
2013-04-26 10:11:00,59.1,42.0,29.27,SSW,202,0.0,0.0,53,0.00,,---,0.00,VWS V13.01,2013-04-26 15:11:00,
2013-04-26 10:16:00,59.7,42.6,29.27,SW,225,0.0,0.0,53,0.00,,---,0.00,VWS V13.01,2013-04-26 15:16:00,
2013-04-26 10:21:00,60.0,42.3,29.27,SW,225,13.8,15.2,52,0.00,,---,0.00,VWS V13.01,2013-04-26 15:21:00,
2013-04-26 10:26:00,60.6,42.9,29.28,SW,225,17.0,17.0,52,0.00,,---,0.00,VWS V13.01,2013-04-26 15:26:00,
2013-04-26 10:31:00,60.9,43.2,29.27,SSW,202,12.8,12.8,52,0.00,,---,0.00,VWS V13.01,2013-04-26 15:31:00,
2013-04-26 10:36:00,61.5,43.2,29.28,SW,225,6.6,6.6,51,0.00,,---,0.00,VWS V13.01,2013-04-26 15:36:00,
2013-04-26 10:41:00,61.7,42.9,29.28,SW,225,14.2,14.2,50,0.00,,---,0.00,VWS V13.01,2013-04-26 15:41:00,
2013-04-26 10:46:00,61.8,43.0,29.28,WSW,248,21.0,21.0,50,0.00,,---,0.00,VWS V13.01,2013-04-26 15:46:00,
2013-04-26 10:51:00,61.8,42.5,29.28,SW,225,16.4,26.8,49,0.00,,---,0.00,VWS V13.01,2013-04-26 15:51:00,
2013-04-26 10:56:00,62.2,42.8,29.28,South,180,13.8,13.8,49,0.00,,---,0.00,VWS V13.01,2013-04-26 15:56:00,
2013-04-26 11:01:00,62.4,43.0,29.28,SSW,202,29.0,29.0,49,0.00,,---,0.00,VWS V13.01,2013-04-26 16:01:00,
2013-04-26 11:06:00,62.4,42.5,29.29,SW,225,18.6,18.6,48,0.00,,---,0.00,VWS V13.01,2013-04-26 16:06:00,
2013-04-26 11:11:00,62.6,43.2,29.29,WSW,248,16.4,16.4,49,0.00,,---,0.00,VWS V13.01,2013-04-26 16:11:00,
2013-04-26 11:16:00,62.9,43.5,29.29,SSW,202,11.6,11.6,49,0.00,,---,0.00,VWS V13.01,2013-04-26 16:16:00,
2013-04-26 11:21:00,63.3,43.8,29.29,SSW,202,0.0,14.6,49,0.00,,---,0.00,VWS V13.01,2013-04-26 16:21:00,
2013-04-26 11:26:00,63.6,44.1,29.29,SW,225,26.2,26.2,49,0.00,,---,0.00,VWS V13.01,2013-04-26 16:26:00,
2013-04-26 11:31:00,63.8,43.8,29.29,SW,225,26.2,26.2,48,0.00,,---,0.00,VWS V13.01,2013-04-26 16:31:00,
2013-04-26 11:36:00,64.2,44.1,29.30,WSW,248,24.0,24.0,48,0.00,,---,0.00,VWS V13.01,2013-04-26 16:36:00,
2013-04-26 11:41:00,64.5,44.4,29.30,SSE,158,1.6,1.6,48,0.00,,---,0.00,VWS V13.01,2013-04-26 16:41:00,
2013-04-26 11:46:00,64.7,44.6,29.30,WSW,248,14.6,14.6,48,0.00,,---,0.00,VWS V13.01,2013-04-26 16:46:00,
2013-04-26 11:51:00,64.9,44.8,29.29,SSW,202,37.0,37.0,48,0.00,,---,0.00,VWS V13.01,2013-04-26 16:51:00,
2013-04-26 11:56:00,65.3,44.6,29.29,WSW,248,22.8,22.8,47,0.00,,---,0.00,VWS V13.01,2013-04-26 16:56:00,
2013-04-26 12:01:00,65.4,44.7,29.30,SW,225,18.2,18.2,47,0.00,,---,0.00,VWS V13.01,2013-04-26 17:01:00,
2013-04-26 12:06:00,65.8,44.5,29.29,SW,225,22.2,29.0,46,0.00,,---,0.00,VWS V13.01,2013-04-26 17:06:00,
2013-04-26 12:11:00,66.0,44.7,29.29,SW,225,27.2,27.2,46,0.00,,---,0.00,VWS V13.01,2013-04-26 17:11:00,
2013-04-26 12:16:00,66.3,44.3,29.30,WSW,248,17.4,17.4,45,0.00,,---,0.00,VWS V13.01,2013-04-26 17:16:00,
2013-04-26 12:21:00,66.7,44.7,29.30,WSW,248,4.0,8.4,45,0.00,,---,0.00,VWS V13.01,2013-04-26 17:21:00,
2013-04-26 12:26:00,66.7,44.7,29.29,SW,225,12.0,12.0,45,0.00,,---,0.00,VWS V13.01,2013-04-26 17:26:00,
2013-04-26 12:31:00,66.9,44.3,29.29,West,270,13.4,13.4,44,0.00,,---,0.00,VWS V13.01,2013-04-26 17:31:00,
2013-04-26 12:37:00,67.6,45.5,29.29,West,270,14.2,14.2,45,0.00,,---,0.00,VWS V13.01,2013-04-26 17:37:00,
2013-04-26 12:42:00,67.6,44.9,29.29,SW,225,14.2,14.2,44,0.00,,---,0.00,VWS V13.01,2013-04-26 17:42:00,
2013-04-26 12:47:00,67.8,45.1,29.29,WSW,248,22.2,22.2,44,0.00,,---,0.00,VWS V13.01,2013-04-26 17:47:00,
2013-04-26 12:53:00,68.3,45.6,29.29,SW,225,12.8,20.4,44,0.00,,---,0.00,VWS V13.01,2013-04-26 17:53:00,
2013-04-26 12:58:00,68.1,44.8,29.29,WSW,248,17.0,17.0,43,0.00,,---,0.00,VWS V13.01,2013-04-26 17:58:00,
2013-04-26 13:03:00,68.1,44.8,29.29,SW,225,8.8,8.8,43,0.00,,---,0.00,VWS V13.01,2013-04-26 18:03:00,
2013-04-26 13:08:00,68.3,45.0,29.29,WSW,248,8.0,13.4,43,0.00,,---,0.00,VWS V13.01,2013-04-26 18:08:00,
2013-04-26 13:13:00,68.5,45.1,29.29,WSW,248,14.6,14.6,43,0.00,,---,0.00,VWS V13.01,2013-04-26 18:13:00,
2013-04-26 13:18:00,68.7,45.3,29.29,SSW,202,16.0,16.0,43,0.00,,---,0.00,VWS V13.01,2013-04-26 18:18:00,
2013-04-26 13:23:00,68.9,44.9,29.29,West,270,11.0,25.4,42,0.00,,---,0.00,VWS V13.01,2013-04-26 18:23:00,
2013-04-26 13:29:00,69.4,46.0,29.29,SSW,202,13.8,13.8,43,0.00,,---,0.00,VWS V13.01,2013-04-26 18:29:00,
2013-04-26 13:34:00,69.8,45.7,29.29,WSW,248,16.0,21.4,42,0.00,,---,0.00,VWS V13.01,2013-04-26 18:34:00,
2013-04-26 13:39:00,70.1,46.0,29.29,WSW,248,18.2,18.2,42,0.00,,---,0.00,VWS V13.01,2013-04-26 18:39:00,
2013-04-26 13:44:00,70.5,46.3,29.28,SW,225,10.6,10.6,42,0.00,,---,0.00,VWS V13.01,2013-04-26 18:44:00,
2013-04-26 13:49:00,70.8,46.6,29.28,SSW,202,11.6,16.0,42,0.00,,---,0.00,VWS V13.01,2013-04-26 18:49:00,
2013-04-26 13:54:00,71.2,47.0,29.28,SSW,202,13.4,13.4,42,0.00,,---,0.00,VWS V13.01,2013-04-26 18:54:00,
2013-04-26 13:59:00,71.7,46.8,29.29,SW,225,0.0,12.8,41,0.00,,---,0.00,VWS V13.01,2013-04-26 18:59:00,
2013-04-26 14:04:00,71.7,46.8,29.28,SW,225,18.2,18.6,41,0.00,,---,0.00,VWS V13.01,2013-04-26 19:04:00,
2013-04-26 14:09:00,71.6,46.0,29.28,WSW,248,7.0,7.0,40,0.00,,---,0.00,VWS V13.01,2013-04-26 19:09:00,
2013-04-26 14:14:00,71.7,46.8,29.28,WSW,248,17.8,31.6,41,0.00,,---,0.00,VWS V13.01,2013-04-26 19:14:00,
2013-04-26 14:19:00,71.9,46.3,29.28,WSW,248,22.8,22.8,40,0.00,,---,0.00,VWS V13.01,2013-04-26 19:19:00,
2013-04-26 14:24:00,72.1,46.5,29.28,SW,225,7.0,7.0,40,0.00,,---,0.00,VWS V13.01,2013-04-26 19:24:00,
2013-04-26 14:29:00,72.3,46.7,29.28,SSW,202,15.2,15.2,40,0.00,,---,0.00,VWS V13.01,2013-04-26 19:29:00,
2013-04-26 14:35:00,72.5,46.8,29.28,SW,225,15.2,15.2,40,0.00,,---,0.00,VWS V13.01,2013-04-26 19:35:00,
2013-04-26 14:40:00,72.6,46.9,29.28,WSW,248,13.4,13.4,40,0.00,,---,0.00,VWS V13.01,2013-04-26 19:40:00,
2013-04-26 14:45:00,72.8,47.1,29.28,SSW,202,21.4,21.4,40,0.00,,---,0.00,VWS V13.01,2013-04-26 19:45:00,
2013-04-26 14:50:00,73.0,46.6,29.28,West,270,0.0,0.0,39,0.00,,---,0.00,VWS V13.01,2013-04-26 19:50:00,
2013-04-26 14:55:00,73.0,46.6,29.28,SW,225,14.2,14.2,39,0.00,,---,0.00,VWS V13.01,2013-04-26 19:55:00,
2013-04-26 15:00:00,73.0,46.6,29.28,SW,225,23.2,23.2,39,0.00,,---,0.00,VWS V13.01,2013-04-26 20:00:00,
2013-04-26 15:05:00,73.0,46.6,29.28,SW,225,3.0,3.0,39,0.00,,---,0.00,VWS V13.01,2013-04-26 20:05:00,
2013-04-26 15:10:00,73.2,46.8,29.28,SW,225,9.2,9.2,39,0.00,,---,0.00,VWS V13.01,2013-04-26 20:10:00,
2013-04-26 15:15:00,73.2,46.8,29.28,SSW,202,22.2,22.2,39,0.00,,---,0.00,VWS V13.01,2013-04-26 20:15:00,
2013-04-26 15:20:00,73.4,47.6,29.28,SSW,202,15.6,15.6,40,0.00,,---,0.00,VWS V13.01,2013-04-26 20:20:00,
2013-04-26 15:25:00,73.4,47.0,29.27,SW,225,21.8,21.8,39,0.00,,---,0.00,VWS V13.01,2013-04-26 20:25:00,
2013-04-26 15:31:00,73.0,46.6,29.27,SSW,202,11.0,11.0,39,0.00,,---,0.00,VWS V13.01,2013-04-26 20:31:00,
2013-04-26 15:36:00,73.0,46.6,29.27,SW,225,9.8,9.8,39,0.00,,---,0.00,VWS V13.01,2013-04-26 20:36:00,
2013-04-26 15:41:00,73.0,46.6,29.27,West,270,12.4,12.4,39,0.00,,---,0.00,VWS V13.01,2013-04-26 20:41:00,
2013-04-26 15:46:00,73.2,46.8,29.27,SW,225,23.6,23.6,39,0.00,,---,0.00,VWS V13.01,2013-04-26 20:46:00,
2013-04-26 15:51:00,73.7,47.2,29.27,SW,225,14.6,14.6,39,0.00,,---,0.00,VWS V13.01,2013-04-26 20:51:00,
2013-04-26 15:56:00,73.7,47.2,29.27,South,180,23.2,23.2,39,0.00,,---,0.00,VWS V13.01,2013-04-26 20:56:00,
2013-04-26 16:01:00,73.5,47.0,29.27,WSW,248,34.4,34.4,39,0.00,,---,0.00,VWS V13.01,2013-04-26 21:01:00,
2013-04-26 16:06:00,73.4,47.0,29.27,South,180,33.0,33.0,39,0.00,,---,0.00,VWS V13.01,2013-04-26 21:06:00,
2013-04-26 16:11:00,73.4,47.0,29.27,SSW,202,11.6,11.6,39,0.00,,---,0.00,VWS V13.01,2013-04-26 21:11:00,
2013-04-26 16:16:00,73.2,46.8,29.27,SW,225,14.6,24.6,39,0.00,,---,0.00,VWS V13.01,2013-04-26 21:16:00,
2013-04-26 16:21:00,73.0,46.6,29.27,WSW,248,15.2,15.2,39,0.00,,---,0.00,VWS V13.01,2013-04-26 21:21:00,
2013-04-26 16:26:00,72.6,46.2,29.27,South,180,23.2,23.2,39,0.00,,---,0.00,VWS V13.01,2013-04-26 21:26:00,
2013-04-26 16:32:00,72.6,46.9,29.27,SW,225,19.6,19.6,40,0.00,,---,0.00,VWS V13.01,2013-04-26 21:32:00,
2013-04-26 16:37:00,72.6,46.2,29.27,South,180,29.0,29.0,39,0.00,,---,0.00,VWS V13.01,2013-04-26 21:37:00,
2013-04-26 16:42:00,72.6,46.2,29.27,SSW,202,7.6,10.6,39,0.00,,---,0.00,VWS V13.01,2013-04-26 21:42:00,
2013-04-26 16:47:00,73.0,47.3,29.27,South,180,24.6,24.6,40,0.00,,---,0.00,VWS V13.01,2013-04-26 21:47:00,
2013-04-26 16:52:00,72.8,46.4,29.27,SSW,202,22.2,22.2,39,0.00,,---,0.00,VWS V13.01,2013-04-26 21:52:00,
2013-04-26 16:57:00,72.5,46.8,29.28,SW,225,22.8,22.8,40,0.00,,---,0.00,VWS V13.01,2013-04-26 21:57:00,
2013-04-26 17:02:00,72.1,46.5,29.27,SW,225,7.0,7.0,40,0.00,,---,0.00,VWS V13.01,2013-04-26 22:02:00,
2013-04-26 17:07:00,72.1,46.5,29.27,South,180,8.0,8.0,40,0.00,,---,0.00,VWS V13.01,2013-04-26 22:07:00,
2013-04-26 17:12:00,72.1,46.5,29.27,SW,225,12.4,12.4,40,0.00,,---,0.00,VWS V13.01,2013-04-26 22:12:00,
2013-04-26 17:17:00,72.1,47.1,29.27,SW,225,27.2,27.2,41,0.00,,---,0.00,VWS V13.01,2013-04-26 22:17:00,
2013-04-26 17:22:00,71.9,47.0,29.27,WSW,248,9.8,9.8,41,0.00,,---,0.00,VWS V13.01,2013-04-26 22:22:00,
2013-04-26 17:27:00,71.4,47.1,29.28,SW,225,1.6,1.6,42,0.00,,---,0.00,VWS V13.01,2013-04-26 22:27:00,
2013-04-26 17:32:00,71.4,47.1,29.28,SSW,202,0.0,0.0,42,0.00,,---,0.00,VWS V13.01,2013-04-26 22:32:00,
2013-04-26 17:37:00,71.2,47.0,29.28,SW,225,11.0,11.0,42,0.00,,---,0.00,VWS V13.01,2013-04-26 22:37:00,
2013-04-26 18:52:00,67.8,46.9,29.29,SE,135,19.6,19.6,47,0.00,,---,0.00,VWS V13.01,2013-04-26 23:52:00,
2013-04-26 19:06:00,67.6,47.2,29.30,South,180,0.0,0.0,48,0.00,,---,0.00,VWS V13.01,2013-04-27 00:06:00,
2013-04-26 19:11:00,67.2,46.9,29.30,SW,225,5.2,5.2,48,0.00,,---,0.00,VWS V13.01,2013-04-27 00:11:00,
2013-04-26 19:16:00,66.9,47.1,29.30,ESE,112,10.6,10.6,49,0.00,,---,0.00,VWS V13.01,2013-04-27 00:16:00,
2013-04-26 19:21:00,66.5,46.8,29.30,SE,135,0.0,0.0,49,0.00,,---,0.00,VWS V13.01,2013-04-27 00:21:00,
2013-04-26 19:26:00,66.2,47.0,29.30,SSW,202,2.2,2.2,50,0.00,,---,0.00,VWS V13.01,2013-04-27 00:26:00,
2013-04-26 19:31:00,65.8,46.7,29.30,SSE,158,8.8,8.8,50,0.00,,---,0.00,VWS V13.01,2013-04-27 00:31:00,
2013-04-26 19:36:00,65.3,46.7,29.31,SSW,202,9.8,9.8,51,0.00,,---,0.00,VWS V13.01,2013-04-27 00:36:00,
2013-04-26 19:41:00,65.1,46.5,29.31,SSW,202,18.2,18.2,51,0.00,,---,0.00,VWS V13.01,2013-04-27 00:41:00,
2013-04-26 19:46:00,64.7,46.2,29.31,SW,225,0.0,0.0,51,0.00,,---,0.00,VWS V13.01,2013-04-27 00:46:00,
2013-04-26 19:51:00,64.5,46.5,29.31,South,180,10.2,10.2,52,0.00,,---,0.00,VWS V13.01,2013-04-27 00:51:00,
2013-04-26 19:56:00,64.2,46.2,29.31,SSW,202,0.0,0.0,52,0.00,,---,0.00,VWS V13.01,2013-04-27 00:56:00,
2013-04-26 20:01:00,64.0,46.5,29.31,SSW,202,14.6,14.6,53,0.00,,---,0.00,VWS V13.01,2013-04-27 01:01:00,
2013-04-26 20:06:00,63.6,46.2,29.32,SSE,158,9.2,9.2,53,0.00,,---,0.00,VWS V13.01,2013-04-27 01:06:00,
2013-04-26 20:11:00,63.3,45.9,29.32,South,180,0.0,0.0,53,0.00,,---,0.00,VWS V13.01,2013-04-27 01:11:00,
2013-04-26 20:16:00,63.1,46.2,29.32,SSE,158,0.0,0.0,54,0.00,,---,0.00,VWS V13.01,2013-04-27 01:16:00,
2013-04-26 20:21:00,62.7,45.8,29.32,SSW,202,0.0,0.0,54,0.00,,---,0.00,VWS V13.01,2013-04-27 01:21:00,
2013-04-26 20:26:00,62.6,45.7,29.33,South,180,0.0,0.0,54,0.00,,---,0.00,VWS V13.01,2013-04-27 01:26:00,
2013-04-26 20:31:00,62.2,45.8,29.33,South,180,0.0,13.4,55,0.00,,---,0.00,VWS V13.01,2013-04-27 01:31:00,
2013-04-26 20:36:00,61.8,45.5,29.33,South,180,0.0,0.0,55,0.00,,---,0.00,VWS V13.01,2013-04-27 01:36:00,
2013-04-26 20:41:00,61.7,45.4,29.33,South,180,0.0,0.0,55,0.00,,---,0.00,VWS V13.01,2013-04-27 01:41:00,
2013-04-26 20:46:00,61.3,45.5,29.33,SSW,202,1.6,1.6,56,0.00,,---,0.00,VWS V13.01,2013-04-27 01:46:00,
2013-04-26 20:51:00,61.1,45.3,29.34,SSW,202,0.0,0.0,56,0.00,,---,0.00,VWS V13.01,2013-04-27 01:51:00,
2013-04-26 20:56:00,60.9,45.6,29.34,SSE,158,0.0,0.0,57,0.00,,---,0.00,VWS V13.01,2013-04-27 01:56:00,
2013-04-26 21:01:00,60.6,45.3,29.35,SSW,202,3.0,3.0,57,0.00,,---,0.00,VWS V13.01,2013-04-27 02:01:00,
2013-04-26 21:06:00,60.4,45.6,29.35,SSW,202,9.2,9.2,58,0.00,,---,0.00,VWS V13.01,2013-04-27 02:06:00,
2013-04-26 21:11:00,60.0,45.2,29.35,SSW,202,0.0,0.0,58,0.00,,---,0.00,VWS V13.01,2013-04-27 02:11:00,
2013-04-26 21:16:00,59.7,44.9,29.36,SSE,158,0.0,0.0,58,0.00,,---,0.00,VWS V13.01,2013-04-27 02:16:00,
2013-04-26 21:21:00,59.5,45.2,29.35,SSE,158,0.0,0.0,59,0.00,,---,0.00,VWS V13.01,2013-04-27 02:21:00,
2013-04-26 21:26:00,59.3,45.0,29.36,SSE,158,0.0,0.0,59,0.00,,---,0.00,VWS V13.01,2013-04-27 02:26:00,
2013-04-26 21:31:00,58.8,45.0,29.36,SSE,158,0.0,0.0,60,0.00,,---,0.00,VWS V13.01,2013-04-27 02:31:00,
2013-04-26 21:36:00,58.8,45.0,29.36,SSE,158,0.0,0.0,60,0.00,,---,0.00,VWS V13.01,2013-04-27 02:36:00,
2013-04-26 21:41:00,58.6,45.2,29.36,South,180,0.0,0.0,61,0.00,,---,0.00,VWS V13.01,2013-04-27 02:41:00,
2013-04-26 21:46:00,58.2,44.8,29.37,SSE,158,0.0,0.0,61,0.00,,---,0.00,VWS V13.01,2013-04-27 02:46:00,
2013-04-26 21:51:00,57.9,45.0,29.37,South,180,0.0,0.0,62,0.00,,---,0.00,VWS V13.01,2013-04-27 02:51:00,
2013-04-26 21:56:00,57.9,45.4,29.38,SSW,202,12.4,12.4,63,0.00,,---,0.00,VWS V13.01,2013-04-27 02:56:00,
2013-04-26 22:01:00,57.7,45.2,29.37,SSW,202,0.0,2.6,63,0.00,,---,0.00,VWS V13.01,2013-04-27 03:01:00,
2013-04-26 22:06:00,57.5,45.4,29.38,South,180,4.0,4.0,64,0.00,,---,0.00,VWS V13.01,2013-04-27 03:06:00,
2013-04-26 22:11:00,57.3,45.2,29.38,SSW,202,23.2,23.2,64,0.00,,---,0.00,VWS V13.01,2013-04-27 03:11:00,
2013-04-26 22:16:00,57.0,45.4,29.39,SSW,202,0.0,4.0,65,0.00,,---,0.00,VWS V13.01,2013-04-27 03:16:00,
2013-04-26 22:21:00,57.0,45.4,29.38,South,180,0.0,0.0,65,0.00,,---,0.00,VWS V13.01,2013-04-27 03:21:00,
2013-04-26 22:26:00,56.8,45.6,29.38,South,180,0.0,0.0,66,0.00,,---,0.00,VWS V13.01,2013-04-27 03:26:00,
2013-04-26 22:31:00,56.4,45.2,29.39,South,180,0.0,0.0,66,0.00,,---,0.00,VWS V13.01,2013-04-27 03:31:00,
2013-04-26 22:36:00,56.4,45.6,29.39,South,180,0.0,0.0,67,0.00,,---,0.00,VWS V13.01,2013-04-27 03:36:00,
2013-04-26 22:41:00,56.3,45.5,29.38,South,180,2.2,2.2,67,0.00,,---,0.00,VWS V13.01,2013-04-27 03:41:00,
2013-04-26 22:46:00,55.9,45.1,29.38,South,180,5.8,5.8,67,0.00,,---,0.00,VWS V13.01,2013-04-27 03:46:00,
2013-04-26 22:51:00,55.9,45.1,29.38,South,180,0.0,0.0,67,0.00,,---,0.00,VWS V13.01,2013-04-27 03:51:00,
2013-04-26 22:56:00,55.5,45.1,29.39,SSW,202,0.0,0.0,68,0.00,,---,0.00,VWS V13.01,2013-04-27 03:56:00,
2013-04-26 23:01:00,55.4,45.0,29.38,SSW,202,0.0,4.4,68,0.00,,---,0.00,VWS V13.01,2013-04-27 04:01:00,
2013-04-26 23:04:00,55.2,44.8,29.39,SSW,202,0.0,0.0,68,0.00,,---,0.00,VWS V13.01,2013-04-27 04:04:00,
2013-04-26 23:08:00,55.2,45.2,29.39,South,180,0.0,0.0,69,0.00,,---,0.00,VWS V13.01,2013-04-27 04:08:00,
2013-04-26 23:13:00,55.0,45.0,29.38,South,180,0.0,0.0,69,0.00,,---,0.00,VWS V13.01,2013-04-27 04:13:00,
2013-04-26 23:16:00,54.8,44.8,29.39,SW,225,0.0,0.0,69,0.00,,---,0.00,VWS V13.01,2013-04-27 04:16:00,
2013-04-26 23:21:00,54.6,45.0,29.39,SSW,202,0.0,0.0,70,0.00,,---,0.00,VWS V13.01,2013-04-27 04:21:00,
2013-04-26 23:26:00,54.5,44.9,29.39,South,180,0.0,0.0,70,0.00,,---,0.00,VWS V13.01,2013-04-27 04:26:00,
2013-04-26 23:31:00,54.3,44.7,29.39,SSW,202,0.0,0.0,70,0.00,,---,0.00,VWS V13.01,2013-04-27 04:31:00,
2013-04-26 23:36:00,54.1,44.5,29.38,SSW,202,0.0,0.0,70,0.00,,---,0.00,VWS V13.01,2013-04-27 04:36:00,
2013-04-26 23:41:00,53.9,44.7,29.38,SSW,202,0.0,0.0,71,0.00,,---,0.00,VWS V13.01,2013-04-27 04:41:00,
2013-04-26 23:46:00,53.7,44.5,29.39,SSW,202,0.0,0.0,71,0.00,,---,0.00,VWS V13.01,2013-04-27 04:46:00,
2013-04-26 23:51:00,53.4,44.2,29.38,SSW,202,0.0,0.0,71,0.00,,---,0.00,VWS V13.01,2013-04-27 04:51:00,
2013-04-26 23:56:00,53.4,44.2,29.39,SSW,202,0.0,0.0,71,0.00,,---,0.00,VWS V13.01,2013-04-27 04:56:00,